Ramona, CA

8:51 AM PDT on October 21, 2019 (GMT -0700)
Ramona

Weather History for KRNM - September, 2019

Change the Weather History Date:

Saturday, September 21, 2019

  Actual Average Record
Temperature  
Mean Temperature 69 °F 69 °F  
Max Temperature 89 °F 86 °F 101 °F (1975)
Min Temperature 48 °F 53 °F 40 °F (2007)
Degree Days  
Heating Degree Days 0 1  
Month to date heating degree days 1 2  
Since 1 July heating degree days 1 5  
Cooling Degree Days 4 5  
Month to date cooling degree days 177 143  
Year to date cooling degree days 899 756  
Growing Degree Days 20 (Base 50)    
Moisture  
Dew Point 51 °F    
Average Humidity 58    
Maximum Humidity 89    
Minimum Humidity 26    
Precipitation  
Precipitation 0.00 in 0.01 in 0.23 in (2016)
Month to date precipitation T 0.22  
Year to date precipitation 15.31 11.83  
Sea Level Pressure  
Sea Level Pressure 29.85 in    
Wind  
Wind Speed 4 mph (WNW)    
Max Wind Speed 15 mph    
Max Gust Speed 18 mph    
Visibility 10 miles    
Events      
T = Trace of Precipitation, MM = Missing Value Source: NWS Daily Summary

Daily Weather History Graph

Daily Weather History Graph

Search for Another Location

Airport or City:

Astronomy

Sep. 21, 2019 Rise Set
Actual Time 6:35 AM PDT 6:45 PM PDT
Civil Twilight 6:10 AM PDT 7:10 PM PDT
Nautical Twilight 5:41 AM PDT 7:39 PM PDT
Astronomical Twilight 5:12 AM PDT 8:08 PM PDT
Moon 11:47 PM PDT 1:25 PM PDT
Length of Visible Light 13h 00m
Length of Day
12h 10m
Waning Gibbous, 53% of the Moon is Illuminated
Sep 21
Waning Gibbous
Sep 21
Last Quarter
Sep 28
New
Oct 5
First Quarter
Oct 13
Full

Hourly Weather History & Observations

Time (PDT) Temp. Heat Index Dew Point Humidity Pressure Visibility Wind Dir Wind Speed Gust Speed Precip Events Conditions
12:53 AM 55.9 °F - 52.0 °F 87% 29.87 in 10.0 mi Calm Calm - N/A   Clear
1:53 AM 54.0 °F - 48.9 °F 83% 29.87 in 10.0 mi Calm Calm - N/A   Clear
2:53 AM 52.0 °F - 48.9 °F 89% 29.88 in 10.0 mi Calm Calm - N/A   Clear
3:53 AM 52.0 °F - 48.0 °F 86% 29.86 in 10.0 mi SE 3.5 mph - N/A   Clear
4:53 AM 50.0 °F - 46.9 °F 89% 29.87 in 10.0 mi Calm Calm - N/A   Clear
5:53 AM 50.0 °F - 46.0 °F 86% 29.88 in 10.0 mi Calm Calm - N/A   Clear
6:53 AM 50.0 °F - 46.9 °F 89% 29.89 in 10.0 mi SE 4.6 mph - N/A   Clear
7:53 AM 57.9 °F - 48.9 °F 72% 29.90 in 10.0 mi Calm Calm - N/A   Clear
8:53 AM 69.1 °F - 48.9 °F 49% 29.89 in 10.0 mi Calm Calm - N/A   Clear
9:53 AM 75.9 °F - 53.1 °F 45% 29.89 in 10.0 mi WNW 4.6 mph - N/A   Clear
10:53 AM 81.0 °F - 46.9 °F 30% 29.87 in 10.0 mi WNW 8.1 mph - N/A   Clear
11:53 AM 84.0 °F - 48.0 °F 28% 29.85 in 10.0 mi WNW 10.4 mph - N/A   Clear
12:53 PM 87.1 °F - 48.9 °F 27% 29.83 in 10.0 mi WNW 8.1 mph - N/A   Clear
1:48 PM 89.6 °F - 51.8 °F 27% 29.85 in 10.0 mi West 11.5 mph 18.4 mph N/A   Clear
1:53 PM 88.0 °F 85.7 °F 53.1 °F 30% 29.81 in 10.0 mi WNW 10.4 mph 18.4 mph N/A   Clear
2:53 PM 86.0 °F 84.2 °F 54.0 °F 33% 29.80 in 10.0 mi West 13.8 mph - N/A   Clear
3:53 PM 86.0 °F 84.5 °F 55.0 °F 35% 29.79 in 10.0 mi West 10.4 mph - N/A   Clear
4:53 PM 84.0 °F - 52.0 °F 33% 29.79 in 10.0 mi WNW 9.2 mph - N/A   Clear
5:53 PM 79.0 °F - 57.0 °F 47% 29.81 in 10.0 mi WSW 6.9 mph - N/A   Clear
6:53 PM 71.1 °F - 55.9 °F 59% 29.84 in 10.0 mi West 3.5 mph - N/A   Clear
7:53 PM 68.0 °F - 55.0 °F 63% 29.85 in 10.0 mi Calm Calm - N/A   Clear
8:53 PM 63.0 °F - 54.0 °F 72% 29.86 in 10.0 mi Calm Calm - N/A   Clear
9:53 PM 61.0 °F - 52.0 °F 72% 29.87 in 10.0 mi Calm Calm - N/A   Clear
10:53 PM 61.0 °F - 54.0 °F 78% 29.87 in 10.0 mi NE 3.5 mph - N/A   Clear
11:53 PM 57.9 °F - 51.1 °F 78% 29.86 in 10.0 mi Calm Calm - N/A   Clear